Temp
11 11 10 10 10 10 10 10 10 11 10 10 10 9 9 8 7 7 7 6 6 6 5 6 6 6 6 6 6 7 7 7 6 7 7 7 7 6
11 11 10 11 10 9 9 10 10 10 10 11 11 10 9 8 7 6 6 6 6 6 6 5 5 5 6 6 6 6 6 6 6 6 6 6 6 6
10 11 11 11 10 10 9 9 10 10 10 10 10 9 9 9 8 7 6 6 6 6 6 5 5 6 6 6 6 6 5 5 6 5 5 5 5 5
11 10 11 11 10 10 10 10 10 10 9 10 10 9 9 9 8 7 6 6 6 5 5 5 5 5 6 6 6 5 5 5 5 5 5 5 5 5
10 10 11 11 10 10 10 9 9 9 9 9 9 9 8 8 7 6 5 4 5 5 5 4 5 5 5 5 5 5 5 4 4 4 4 4 4 4
10 9 10 9 10 10 10 9 8 8 8 8 8 8 8 7 7 6 5 5 4 4 4 4 4 4 4 4 4 4 4 4 4 4 4 4 3 4
10 9 9 9 9 9 9 9 8 8 7 7 7 7 7 7 7 7 5 4 4 4 3 3 3 3 4 4 4 4 4 4 4 3 3 3 3 3
10 7 8 8 9 8 8 8 8 7 7 7 7 7 7 7 6 6 6 4 2 4 3 3 3 3 4 4 4 3 3 3 3 3 3 3 3 3
7 7 7 7 7 7 7 6 7 7 6 6 6 7 7 7 7 5 5 5 5 4 3 3 2 3 2 2 2 2 2 2 2 2 2 2 2 2
7 7 7 7 7 6 6 5 6 6 6 5 5 4 5 5 5 6 6 5 3 3 2 2 3 3 2 2 2 2 2 2 1 2 2 2 1 1
8 7 6 6 6 6 5 5 5 5 5 5 4 4 3 3 4 4 4 3 2 2 2 1 2 2 2 2 2 2 2 1 1 1 1 1 1 1
7 8 6 6 6 6 6 5 5 5 5 5 4 4 3 3 3 3 3 3 2 2 2 1 1 1 1 2 1 1 1 1 1 1 0 0 0 0
7 7 7 6 6 6 6 6 6 5 4 4 4 4 3 2 2 2 2 2 2 2 2 1 1 1 0 1 2 1 0 0 0 0 -0 -0 -0 -0
6 6 6 6 6 6 6 6 6 4 4 4 4 3 3 3 2 1 1 1 1 0 0 0 0 0 0 1 0 1 2 1 -0 -0 -1 -1 -1 -1
5 5 5 5 5 6 5 4 3 3 3 3 3 3 3 2 2 1 1 1 0 -0 -0 -0 -1 -1 -2 -1 -0 1 0 1 0 0 -0 -1 -1 -2
4 4 4 4 4 4 4 3 2 2 2 2 2 2 2 2 1 1 1 0 -0 -0 -1 -1 -1 -2 -4 -1 -1 -1 -1 -1 -0 0 -0 -1 -2 -2
2 3 3 3 3 4 4 2 2 2 2 2 2 1 1 1 1 1 0 -1 -1 -1 -1 -2 -2 -3 -2 -2 -2 -2 -3 -2 -1 -1 -2 -2 -2 -2
2 2 2 2 2 2 2 2 1 1 1 1 1 1 1 1 0 -0 -1 -1 -1 -2 -1 -2 -2 -3 -3 -3 -2 -2 -2 -2 -2 -2 -3 -3 -3 -3
1 1 1 1 1 1 1 1 1 0 0 1 0 -0 -0 -0 -1 -1 -1 -1 -2 -2 -2 -2 -2 -3 -3 -2 -2 -2 -1 -2 -3 -4 -4 -4 -4 -4
-0 -0 -1 -1 -1 -1 -0 -0 -0 -0 -0 -1 -1 -1 -2 -2 -2 -2 -2 -2 -2 -2 -2 -2 -2 -3 -3 -2 -2 -3 -3 -3 -4 -4 -4 -5 -6 -6
-1 -1 -1 -1 -1 -1 -1 -2 -2 -2 -2 -2 -2 -2 -2 -2 -2 -3 -2 -2 -2 -3 -3 -3 -2 -3 -4 -4 -4 -4 -4 -3 -4 -4 -5 -6 -7 -7
-3 -3 -3 -2 -2 -2 -2 -2 -2 -2 -2 -2 -2 -2 -3 -3 -3 -3 -3 -3 -3 -3 -3 -3 -4 -5 -5 -5 -4 -4 -3 -4 -5 -5 -6 -6 -7 -7
-4 -5 -5 -5 -4 -4 -4 -4 -4 -3 -3 -3 -3 -3 -3 -4 -3 -4 -4 -4 -4 -4 -4 -4 -4 -5 -5 -5 -5 -5 -5 -5 -6 -6 -6 -7 -7 -7
Height
1529 1532 1535 1539 1541 1543 1545 1546 1549 1547 1548 1549 1551 1554 1556 1559 1561 1563 1564 1566 1567 1568 1570 1572 1573 1573 1574 1575 1576 1576 1577 1577 1576 1574 1573 1574 1573 1573
1524 1527 1530 1533 1537 1540 1541 1542 1544 1545 1546 1547 1547 1549 1552 1555 1557 1559 1561 1562 1563 1565 1566 1568 1569 1571 1572 1574 1575 1576 1576 1576 1577 1576 1574 1572 1573 1572
1520 1523 1525 1528 1531 1534 1537 1537 1539 1541 1541 1543 1544 1545 1547 1549 1551 1554 1556 1558 1560 1561 1563 1564 1566 1567 1568 1570 1572 1573 1574 1574 1575 1576 1575 1574 1573 1571
1515 1518 1520 1523 1525 1528 1531 1532 1533 1536 1537 1537 1540 1541 1542 1545 1548 1550 1551 1553 1555 1557 1559 1561 1563 1564 1565 1566 1568 1570 1571 1572 1572 1572 1573 1572 1573 1571
1508 1512 1515 1517 1518 1520 1523 1526 1528 1531 1533 1533 1534 1536 1539 1541 1543 1544 1547 1548 1550 1552 1554 1557 1559 1560 1562 1562 1563 1566 1568 1569 1570 1570 1570 1571 1570 1570
1499 1504 1508 1510 1512 1514 1516 1519 1522 1525 1528 1529 1530 1531 1533 1536 1538 1540 1540 1542 1545 1546 1548 1551 1553 1554 1557 1559 1560 1561 1563 1565 1568 1569 1567 1568 1569 1568
1492 1496 1499 1502 1505 1508 1509 1512 1514 1518 1520 1522 1524 1526 1525 1529 1530 1533 1536 1539 1540 1542 1543 1544 1547 1551 1551 1554 1555 1557 1558 1559 1561 1564 1564 1565 1566 1567
1486 1486 1487 1492 1494 1498 1501 1503 1504 1508 1511 1514 1515 1518 1520 1522 1526 1529 1531 1532 1534 1535 1538 1540 1543 1544 1548 1550 1552 1553 1555 1555 1556 1560 1562 1562 1562 1561
1478 1478 1479 1481 1483 1486 1490 1493 1493 1496 1499 1505 1507 1509 1512 1516 1522 1526 1527 1527 1528 1530 1534 1535 1538 1540 1542 1545 1548 1550 1552 1554 1554 1554 1556 1558 1560 1559
1471 1470 1470 1474 1473 1476 1480 1481 1482 1485 1488 1493 1497 1501 1506 1510 1514 1519 1521 1520 1521 1525 1528 1529 1532 1533 1536 1539 1541 1544 1546 1549 1550 1551 1550 1552 1555 1555
1465 1463 1464 1466 1465 1468 1470 1472 1472 1474 1481 1484 1489 1493 1498 1503 1506 1509 1509 1512 1515 1517 1521 1524 1527 1529 1530 1532 1534 1535 1538 1541 1544 1545 1545 1546 1548 1549
1458 1456 1458 1462 1460 1462 1462 1462 1466 1468 1471 1477 1481 1485 1491 1495 1498 1500 1502 1505 1509 1510 1515 1517 1521 1526 1527 1528 1530 1533 1534 1535 1538 1540 1539 1540 1544 1544
1451 1450 1454 1455 1456 1456 1456 1454 1458 1460 1464 1470 1476 1479 1482 1487 1491 1494 1497 1500 1503 1505 1509 1510 1515 1518 1521 1524 1524 1526 1531 1532 1534 1536 1537 1537 1537 1537
1445 1446 1447 1448 1449 1453 1452 1449 1452 1454 1455 1463 1468 1473 1476 1480 1483 1488 1492 1496 1499 1501 1503 1503 1505 1508 1511 1515 1518 1518 1521 1525 1530 1531 1533 1533 1532 1532
1440 1439 1440 1442 1444 1444 1447 1447 1447 1450 1449 1453 1460 1465 1471 1478 1479 1484 1487 1489 1491 1493 1493 1495 1499 1500 1503 1507 1510 1510 1510 1514 1519 1521 1525 1527 1527 1527
1436 1434 1435 1437 1440 1441 1443 1444 1444 1449 1452 1452 1457 1459 1464 1472 1473 1476 1481 1484 1486 1488 1489 1487 1493 1493 1494 1502 1504 1505 1508 1509 1511 1513 1516 1520 1522 1522
1435 1432 1433 1435 1437 1440 1441 1442 1442 1445 1449 1453 1456 1457 1458 1464 1469 1473 1476 1477 1479 1480 1483 1483 1487 1490 1488 1493 1498 1499 1501 1505 1504 1505 1509 1510 1514 1516
1434 1433 1433 1434 1434 1437 1441 1441 1442 1445 1448 1453 1456 1455 1455 1458 1465 1469 1471 1471 1472 1475 1477 1479 1483 1485 1483 1488 1490 1495 1493 1496 1497 1499 1502 1502 1505 1508
1434 1433 1434 1435 1437 1438 1442 1441 1442 1445 1449 1450 1452 1456 1457 1456 1461 1462 1464 1466 1467 1470 1472 1475 1476 1476 1481 1480 1486 1488 1486 1487 1489 1492 1495 1496 1496 1499
1435 1435 1436 1438 1438 1439 1439 1440 1443 1444 1448 1451 1449 1452 1453 1454 1457 1459 1458 1459 1463 1465 1467 1469 1468 1472 1475 1474 1476 1483 1483 1484 1481 1482 1487 1488 1488 1490
1435 1436 1436 1437 1438 1439 1440 1441 1442 1443 1445 1446 1447 1449 1451 1451 1452 1454 1455 1454 1457 1460 1462 1461 1464 1469 1469 1471 1471 1471 1475 1478 1476 1475 1479 1480 1480 1481
1438 1438 1438 1438 1439 1440 1440 1440 1441 1441 1442 1443 1444 1446 1447 1446 1447 1447 1449 1450 1451 1454 1455 1456 1460 1459 1461 1462 1462 1464 1467 1470 1469 1469 1470 1472 1473 1473
1437 1438 1439 1439 1438 1438 1438 1438 1438 1438 1438 1439 1440 1440 1441 1442 1443 1443 1444 1445 1446 1447 1448 1450 1452 1452 1453 1454 1455 1457 1459 1460 1460 1462 1463 1465 1465 1465
Wind_Speed
31 30 30 29 28 27 24 20 19 16 24 24 24 22 22 21 20 19 18 18 18 17 16 13 11 11 11 9 7 5 3 3 3 4 4 5 5 6
33 31 31 30 31 30 30 28 26 23 21 17 20 20 19 20 21 20 20 20 19 19 18 17 14 13 13 11 9 7 6 6 4 3 3 4 4 5
33 33 33 32 30 30 31 30 30 27 25 22 20 20 21 20 21 22 22 23 21 21 20 19 16 15 15 13 11 10 9 8 6 4 3 2 1 3
34 35 35 34 33 32 31 33 31 30 28 27 26 24 24 22 21 22 22 23 23 23 21 19 17 17 17 15 14 13 11 10 8 7 5 3 0 1
36 37 36 36 35 35 35 34 33 31 32 31 30 28 26 25 25 26 25 24 25 25 23 20 19 19 20 18 17 15 14 13 11 10 7 4 2 1
38 39 38 39 37 37 37 37 35 34 34 34 34 33 30 28 29 29 29 28 28 28 25 24 23 23 22 19 18 17 16 14 13 12 9 7 4 3
37 38 37 37 36 36 37 36 36 37 38 36 38 39 36 33 34 34 32 29 29 29 29 27 26 25 24 23 21 20 19 18 17 15 12 10 7 5
36 38 37 41 37 36 37 35 34 35 37 40 41 43 41 39 35 36 34 33 32 33 33 29 27 26 25 23 22 22 21 20 19 17 15 12 11 9
27 29 31 37 40 42 41 41 40 37 38 36 39 41 43 39 36 35 36 33 35 33 29 32 29 28 26 26 24 23 23 22 21 19 18 16 14 12
22 20 20 29 31 36 44 43 43 42 41 39 36 36 34 27 28 32 32 34 35 34 31 26 28 30 28 28 27 26 24 24 23 22 20 18 17 16
20 20 20 25 21 22 25 29 32 37 40 39 36 35 30 27 26 30 35 33 35 36 33 30 28 26 28 30 30 28 28 27 25 25 23 22 21 19
25 23 24 21 19 18 20 17 23 27 32 36 35 33 31 29 29 28 26 29 33 32 32 31 30 25 24 28 30 30 30 28 28 27 26 23 22 21
27 28 32 23 20 18 20 20 18 18 21 24 29 32 31 32 31 33 32 28 26 28 22 20 26 27 26 15 18 29 30 30 29 28 27 25 25 25
24 25 24 25 23 19 16 15 17 17 16 19 24 30 32 31 30 28 25 25 27 27 27 29 29 24 23 27 29 22 20 28 30 28 27 27 28 27
20 20 20 19 20 19 18 17 19 19 18 19 23 25 31 30 26 27 30 31 29 29 31 31 28 25 27 22 22 22 22 21 22 23 25 28 28 27
15 13 14 16 17 16 18 18 16 17 16 16 18 18 25 28 28 29 30 30 29 29 31 31 28 24 19 24 22 20 16 18 21 23 23 25 26 27
7 8 9 11 14 16 16 15 13 12 13 14 15 17 22 27 27 28 32 31 31 30 28 26 24 20 22 23 22 20 20 23 24 21 21 22 24 28
4 6 7 5 5 6 8 9 11 11 12 13 16 17 24 27 29 28 32 30 27 25 26 24 25 27 28 26 26 24 25 25 22 20 21 23 28 27
6 6 5 5 4 4 5 5 7 9 12 12 15 13 17 22 27 26 25 26 27 27 24 24 23 20 26 30 23 27 28 26 18 17 22 27 28 24
6 7 7 6 5 5 5 5 7 10 13 15 17 19 18 17 19 22 22 23 24 23 24 24 26 29 29 28 29 28 22 21 18 20 26 28 25 27
3 2 2 3 4 5 6 8 8 10 12 13 12 13 15 15 18 20 20 20 22 24 26 25 23 22 24 27 29 28 24 23 22 28 31 27 30 30
3 3 3 4 6 7 10 10 11 11 10 12 13 13 14 15 15 18 21 23 25 26 26 24 24 23 24 26 28 28 26 25 30 28 24 23 25 28
2 2 4 6 7 8 9 9 10 11 12 12 12 13 14 15 15 17 18 19 21 23 23 24 24 24 25 25 26 27 25 28 28 24 22 20 21 22
Wind_Direction
229 230 232 233 239 243 244 245 245 230 238 241 242 247 245 240 238 240 239 236 238 242 247 245 238 231 234 240 239 233 214 187 172 136 112 90 72 59
233 232 234 234 237 242 246 248 248 247 249 254 249 250 250 247 245 241 240 238 237 240 244 244 239 231 234 234 234 230 216 207 191 167 121 97 77 56
235 236 237 238 238 239 241 245 246 246 246 252 246 243 242 245 245 241 238 241 240 242 243 244 238 228 231 229 226 223 217 209 205 194 160 129 87 46
240 242 241 240 239 239 240 242 244 246 247 248 252 246 242 243 243 245 242 241 239 240 242 241 236 232 230 226 224 222 216 214 208 198 199 201 184 21
247 247 248 246 244 244 242 243 245 245 248 249 250 250 247 241 236 236 237 237 237 239 240 236 234 233 231 225 223 221 216 215 214 211 212 221 235 330
248 249 249 251 250 250 250 249 249 249 248 249 250 250 250 243 238 239 238 235 233 235 238 235 232 231 229 227 224 221 218 218 221 222 218 226 241 265
249 249 249 251 253 254 255 254 254 251 248 247 247 249 247 242 238 237 238 242 238 237 239 234 230 229 229 226 224 222 221 219 222 225 224 230 238 262
244 250 252 249 247 249 251 250 251 252 252 248 246 248 251 251 248 242 239 233 231 237 236 235 233 232 234 232 230 227 227 224 224 226 231 234 241 246
253 256 252 253 251 250 249 249 249 250 250 247 252 252 252 254 255 249 245 245 247 245 240 235 233 233 231 232 230 231 231 233 229 228 232 237 243 250
254 247 255 259 259 259 255 252 248 253 248 243 244 251 250 254 262 265 264 252 245 244 240 242 239 238 232 233 232 232 233 234 235 235 235 239 246 251
254 255 245 251 252 253 258 260 259 257 255 254 251 247 244 241 240 251 244 239 240 242 240 239 242 241 235 234 234 233 233 233 236 238 238 240 244 251
257 247 255 254 254 253 254 254 262 265 261 256 249 248 241 238 234 240 241 244 241 237 238 235 240 241 245 242 239 239 238 237 238 239 239 241 248 254
260 249 248 248 248 261 260 255 248 254 262 266 261 250 243 238 237 239 242 239 237 235 237 238 243 245 241 253 247 240 243 245 243 245 245 248 251 255
250 252 248 239 245 246 247 248 245 235 235 251 259 246 236 232 240 238 230 232 229 237 239 240 241 234 240 240 244 247 249 248 246 249 251 253 254 257
251 250 246 236 232 227 237 236 230 226 221 238 248 247 241 247 241 234 237 226 223 232 238 237 240 233 229 236 242 248 242 246 248 252 254 256 258 258
246 240 227 225 231 229 231 220 220 232 230 232 240 244 239 234 237 231 228 227 230 234 248 247 233 227 229 238 238 242 255 257 254 256 254 255 258 262
226 224 229 232 229 240 237 219 216 220 234 237 242 241 242 235 229 229 227 230 255 259 241 233 231 227 231 236 238 247 243 251 251 251 252 259 266 267
147 154 163 176 187 200 225 228 241 239 241 248 246 252 248 232 226 242 256 255 245 240 241 233 232 232 228 232 238 248 248 247 247 253 263 265 270 269
137 133 129 142 160 171 206 228 249 253 251 249 223 258 252 255 259 255 246 243 240 242 240 241 234 231 237 240 239 242 243 240 237 262 270 280 281 268
124 130 138 148 160 182 201 215 236 238 237 239 240 257 253 243 244 243 240 241 243 244 248 247 247 244 246 249 250 256 252 233 248 290 294 284 265 265
126 146 181 203 213 218 219 218 229 237 243 244 243 244 250 249 249 249 251 250 250 250 251 249 252 256 253 256 255 255 254 252 269 286 280 263 265 268
139 155 186 217 240 253 249 242 234 228 235 243 247 252 257 258 262 261 256 254 253 254 257 255 247 241 241 247 254 258 262 252 268 277 268 264 265 269
154 202 230 237 243 246 251 246 245 246 246 246 250 251 257 256 259 261 261 261 262 262 261 257 250 244 244 245 253 257 248 264 275 268 264 265 267 269